OK,62,34,727,62,2014-10-01T01:40:00,0,28072054,204273
OK,62,34,727,62,2014-10-01T01:45:00,0,28072497,204273
OK,62,34,727,62,2014-10-01T01:50:00,0,28072946,204273
OK,62,34,727,62,2014-10-01T01:55:00,0,28073393,204273
OK,62,34,727,62,2014-10-01T02:05:00,0,28074159,204273
OK,62,34,727,62,2014-10-01T02:10:00,0,28074608,204273
OK,62,34,727,62,2014-10-01T02:15:00,0,28075048,204273
OK,62,34,727,62,2014-10-01T02:20:00,0,28075497,204273
OK,62,34,727,62,2014-10-01T02:25:00,0,28075946,204273
OK,62,34,727,62,2014-10-01T02:30:00,0,28076329,204273
OK,62,34,727,62,2014-10-01T02:35:00,0,28076778,204273
OK,62,34,727,62,2014-10-01T02:40:00,0,28077227,204273
OK,62,34,727,62,2014-10-01T02:45:00,0,28077676,204273
OK,62,34,727,62,2014-10-01T02:50:00,0,28078079,204273
OK,62,34,727,62,2014-10-01T02:55:00,0,28078528,204273
OK,62,34,727,62,2014-10-01T03:00:00,0,28078973,204273
OK,62,34,727,62,2014-10-01T03:05:00,0,28079421,204273
OK,62,34,727,62,2014-10-01T03:10:00,0,28079864,204273
OK,62,34,727,62,2014-10-01T03:20:00,0,28080647,204273
OK,62,34,727,62,2014-10-01T03:25:00,0,28081096,204273
OK,62,34,727,62,2014-10-01T03:30:00,0,28081544,204273
OK,62,34,727,62,2014-10-01T03:35:00,0,28081992,204273
OK,62,34,727,62,2014-10-01T03:40:00,0,28082441,204273
OK,62,34,727,62,2014-10-01T03:45:00,0,28082874,204273
OK,62,34,727,62,2014-10-01T03:50:00,0,28083306,204273
OK,59,36,727,59,2014-10-01T03:55:00,1,28083755,204273
OK,59,36,727,59,2014-10-01T04:00:00,1,28084204,204273
OK,59,36,727,59,2014-10-01T04:05:00,0,28084645,204273
OK,52,40,727,52,2014-10-01T04:10:00,2,28085070,204273
OK,48,44,727,48,2014-10-01T04:15:00,2,28085519,204273
OK,53,40,727,53,2014-10-01T04:20:00,0,28085964,204273
OK,53,40,727,53,2014-10-01T04:25:00,0,28086413,204273
OK,54,39,727,54,2014-10-01T04:30:00,4,28086855,204273
OK,77,27,727,77,2014-10-01T04:35:00,3,28087304,204273
OK,87,24,727,87,2014-10-01T04:40:00,3,28087749,204273
OK,87,24,727,87,2014-10-01T04:45:00,1,28088198,204273
OK,49,43,727,49,2014-10-01T04:50:00,1,28088622,204273
OK,49,43,727,49,2014-10-01T04:55:00,3,28089071,204273
OK,63,33,727,63,2014-10-01T05:00:00,6,28089501,204273
OK,69,30,727,69,2014-10-01T05:05:00,5,28089950,204273
OK,96,22,727,96,2014-10-01T05:10:00,2,28090399,204273
OK,97,21,727,97,2014-10-01T05:15:00,4,28090743,204273
OK,75,28,727,75,2014-10-01T05:20:00,4,28091192,204273
OK,43,49,727,43,2014-10-01T05:25:00,0,28091641,204273
OK,66,32,727,66,2014-10-01T05:30:00,4,28092058,204273
OK,69,30,727,69,2014-10-01T05:35:00,6,28092507,204273
OK,69,30,727,69,2014-10-01T05:40:00,6,28092951,204273
OK,55,38,727,55,2014-10-01T05:45:00,10,28093392,204273
OK,50,42,727,50,2014-10-01T05:50:00,8,28093823,204273
OK,41,51,727,41,2014-10-01T05:55:00,6,28094271,204273
OK,41,51,727,41,2014-10-01T06:00:00,6,28094683,204273
OK,46,46,727,46,2014-10-01T06:05:00,3,28095128,204273
OK,46,46,727,46,2014-10-01T06:10:00,4,28095575,204273
OK,60,35,727,60,2014-10-01T06:15:00,4,28096024,204273
OK,74,28,727,74,2014-10-01T06:20:00,6,28096437,204273
OK,82,25,727,82,2014-10-01T06:25:00,7,28096886,204273
OK,88,24,727,88,2014-10-01T06:30:00,5,28097320,204273
OK,44,48,727,44,2014-10-01T06:35:00,3,28097769,204273
OK,44,48,727,44,2014-10-01T06:40:00,5,28098218,204273
OK,48,44,727,48,2014-10-01T06:45:00,6,28098655,204273
OK,67,31,727,67,2014-10-01T06:50:00,2,28099099,204273
OK,54,39,727,54,2014-10-01T07:00:00,3,28099890,204273
OK,84,25,727,84,2014-10-01T07:10:00,7,28100646,204273
OK,84,25,727,84,2014-10-01T07:15:00,5,28101088,204273
OK,91,23,727,91,2014-10-01T07:20:00,3,28101466,204273
OK,91,23,727,91,2014-10-01T07:25:00,3,28101915,204273
OK,41,51,727,41,2014-10-01T07:30:00,5,28102351,204273
OK,84,25,727,84,2014-10-01T07:35:00,8,28102800,204273
OK,94,22,727,94,2014-10-01T07:40:00,5,28103227,204273
OK,81,26,727,81,2014-10-01T07:45:00,5,28103674,204273
OK,81,26,727,81,2014-10-01T07:50:00,5,28104119,204273
OK,57,37,727,57,2014-10-01T07:55:00,2,28104564,204273
OK,55,38,727,55,2014-10-01T08:00:00,8,28105005,204273
OK,52,40,727,52,2014-10-01T08:05:00,8,28105450,204273
OK,42,50,727,42,2014-10-01T08:10:00,3,28105890,204273
OK,50,42,727,50,2014-10-01T08:15:00,1,28106339,204273
OK,50,42,727,50,2014-10-01T08:20:00,5,28106776,204273
OK,62,34,727,62,2014-10-01T08:25:00,4,28107182,204273
OK,55,38,727,55,2014-10-01T08:30:00,6,28107614,204273
OK,51,41,727,51,2014-10-01T08:35:00,5,28108063,204273
OK,53,40,727,53,2014-10-01T08:40:00,6,28108502,204273
OK,51,41,727,51,2014-10-01T08:45:00,6,28108951,204273
OK,44,48,727,44,2014-10-01T08:50:00,2,28109379,204273
OK,85,24,727,85,2014-10-01T09:00:00,2,28110171,204273
OK,86,24,727,86,2014-10-01T09:05:00,3,28110620,204273
OK,60,35,727,60,2014-10-01T09:10:00,6,28111043,204273
OK,49,43,727,49,2014-10-01T09:15:00,13,28111492,204273
OK,52,40,727,52,2014-10-01T09:20:00,14,28111921,204273
OK,66,32,727,66,2014-10-01T09:30:00,5,28112711,204273
OK,44,48,727,44,2014-10-01T09:35:00,6,28113160,204273
OK,40,53,727,40,2014-10-01T09:40:00,7,28113584,204273
OK,46,46,727,46,2014-10-01T09:45:00,7,28114033,204273
OK,58,36,727,58,2014-10-01T09:50:00,6,28114465,204273
OK,82,25,727,82,2014-10-01T10:00:00,6,28115268,204273
OK,83,25,727,83,2014-10-01T10:05:00,9,28115717,204273
OK,95,22,727,95,2014-10-01T10:10:00,8,28116129,204273
OK,99,21,727,99,2014-10-01T10:15:00,8,28116578,204273
OK,92,23,727,92,2014-10-01T10:20:00,8,28116986,204273
OK,53,40,727,53,2014-10-01T10:25:00,5,28117435,204273
OK,48,44,727,48,2014-10-01T10:30:00,6,28117860,204273
OK,62,34,727,62,2014-10-01T10:35:00,2,28118309,204273
OK,59,36,727,59,2014-10-01T10:40:00,4,28118754,204273
OK,59,36,727,59,2014-10-01T10:45:00,4,28119201,204273
OK,65,32,727,65,2014-10-01T10:50:00,2,28119645,204273
OK,102,20,727,102,2014-10-01T10:55:00,6,28120093,204273
OK,58,36,727,58,2014-10-01T11:00:00,8,28120541,204273
OK,51,41,727,51,2014-10-01T11:05:00,9,28120989,204273
OK,51,41,727,51,2014-10-01T11:10:00,5,28121373,204273
OK,46,46,727,46,2014-10-01T11:15:00,5,28121822,204273
OK,43,49,727,43,2014-10-01T11:20:00,9,28122260,204273
OK,60,35,727,60,2014-10-01T11:25:00,10,28122709,204273
OK,83,25,727,83,2014-10-01T11:30:00,6,28123150,204273
OK,94,22,727,94,2014-10-01T11:35:00,10,28123599,204273
OK,90,23,727,90,2014-10-01T11:40:00,10,28124031,204273
OK,98,21,727,98,2014-10-01T11:45:00,4,28124480,204273
OK,59,36,727,59,2014-10-01T11:50:00,2,28124882,204273
OK,74,28,727,74,2014-10-01T11:55:00,8,28125331,204273
OK,65,32,727,65,2014-10-01T12:00:00,13,28125760,204273
OK,60,35,727,60,2014-10-01T12:10:00,8,28126561,204273
OK,56,37,727,56,2014-10-01T12:15:00,3,28127010,204273
OK,86,24,727,86,2014-10-01T12:20:00,9,28127459,204273
OK,83,25,727,83,2014-10-01T12:25:00,12,28127908,204273
OK,86,24,727,86,2014-10-01T12:30:00,17,28128336,204273
OK,69,30,727,69,2014-10-01T12:35:00,13,28128785,204273
OK,69,30,727,69,2014-10-01T12:40:00,7,28129220,204273
OK,92,23,727,92,2014-10-01T12:45:00,6,28129669,204273
OK,81,26,727,81,2014-10-01T12:50:00,12,28130103,204273
OK,83,25,727,83,2014-10-01T12:55:00,12,28130552,204273
OK,82,25,727,82,2014-10-01T13:00:00,14,28130980,204273
OK,80,26,727,80,2014-10-01T13:05:00,16,28131429,204273
OK,82,25,727,82,2014-10-01T13:10:00,14,28131866,204273
OK,72,29,727,72,2014-10-01T13:15:00,13,28132315,204273
OK,60,35,727,60,2014-10-01T13:20:00,10,28132753,204273
OK,92,23,727,92,2014-10-01T13:25:00,18,28133200,204273
OK,92,23,727,92,2014-10-01T13:30:00,26,28133638,204273
OK,85,24,727,85,2014-10-01T13:35:00,17,28134087,204273
OK,87,24,727,87,2014-10-01T13:40:00,5,28134526,204273
OK,81,26,727,81,2014-10-01T13:45:00,15,28134975,204273
OK,84,25,727,84,2014-10-01T13:50:00,17,28135394,204273
OK,82,25,727,82,2014-10-01T13:55:00,10,28135843,204273
OK,79,26,727,79,2014-10-01T14:00:00,12,28136280,204273
OK,55,38,727,55,2014-10-01T14:05:00,12,28136729,204273
OK,78,27,727,78,2014-10-01T14:10:00,14,28137169,204273
OK,88,24,727,88,2014-10-01T14:15:00,10,28137618,204273
OK,55,38,727,55,2014-10-01T14:20:00,14,28138052,204273
OK,59,36,727,59,2014-10-01T14:25:00,23,28138501,204273
OK,75,28,727,75,2014-10-01T14:30:00,15,28138929,204273
OK,72,29,727,72,2014-10-01T14:35:00,10,28139378,204273
OK,71,29,727,71,2014-10-01T14:40:00,11,28139789,204273
OK,46,46,727,46,2014-10-01T14:45:00,7,28140238,204273
OK,59,36,727,59,2014-10-01T14:50:00,8,28140680,204273
OK,70,30,727,70,2014-10-01T14:55:00,9,28141128,204273
OK,87,24,727,87,2014-10-01T15:00:00,5,28141555,204273
OK,82,25,727,82,2014-10-01T15:05:00,6,28142004,204273
OK,90,23,727,90,2014-10-01T15:10:00,6,28142432,204273
OK,109,19,727,109,2014-10-01T15:15:00,6,28142881,204273
OK,52,40,727,52,2014-10-01T15:20:00,7,28143308,204273
OK,75,28,727,75,2014-10-01T15:25:00,6,28143757,204273
OK,75,28,727,75,2014-10-01T15:30:00,6,28144205,204273
OK,46,46,727,46,2014-10-01T15:35:00,2,28144654,204273
OK,117,18,727,117,2014-10-01T15:40:00,1,28145075,204273
OK,77,27,727,77,2014-10-01T15:45:00,4,28145489,204273
OK,60,35,727,60,2014-10-01T15:50:00,7,28145938,204273
OK,52,40,727,52,2014-10-01T15:55:00,3,28146387,204273
OK,48,44,727,48,2014-10-01T16:00:00,3,28146836,204273
OK,48,44,727,48,2014-10-01T16:05:00,3,28147244,204273
OK,82,25,727,82,2014-10-01T16:10:00,4,28147688,204273
OK,99,21,727,99,2014-10-01T16:15:00,3,28148137,204273
OK,89,23,727,89,2014-10-01T16:20:00,2,28148538,204273
OK,72,29,727,72,2014-10-01T16:25:00,2,28148987,204273
OK,76,27,727,76,2014-10-01T16:30:00,0,28149426,204273
OK,75,28,727,75,2014-10-01T16:35:00,2,28149875,204273
OK,73,29,727,73,2014-10-01T16:40:00,3,28150301,204273
OK,49,43,727,49,2014-10-01T16:45:00,1,28150750,204273
OK,47,45,727,47,2014-10-01T16:50:00,1,28151168,204273
OK,74,28,727,74,2014-10-01T16:55:00,4,28151617,204273
OK,89,23,727,89,2014-10-01T17:05:00,1,28152066,204273
OK,89,23,727,89,2014-10-01T17:10:00,0,28152515,204273
OK,115,18,727,115,2014-10-01T17:15:00,1,28152961,204273
OK,32,66,727,32,2014-10-01T17:20:00,2,28153408,204273
OK,32,66,727,32,2014-10-01T17:25:00,2,28153857,204273
OK,98,21,727,98,2014-10-01T17:30:00,2,28154267,204273
OK,96,22,727,96,2014-10-01T17:35:00,4,28154716,204273
OK,64,33,727,64,2014-10-01T17:40:00,4,28155158,204273
OK,92,23,727,92,2014-10-01T17:45:00,4,28155606,204273
OK,58,36,727,58,2014-10-01T17:50:00,5,28156024,204273
OK,61,34,727,61,2014-10-01T17:55:00,1,28156473,204273
OK,60,35,727,60,2014-10-01T18:00:00,2,28156921,204273
OK,108,19,727,108,2014-10-01T18:05:00,1,28157360,204273
OK,108,19,727,108,2014-10-01T18:10:00,1,28157790,204273
OK,75,28,727,75,2014-10-01T18:15:00,2,28158238,204273
OK,53,40,727,53,2014-10-01T18:20:00,1,28158682,204273
OK,53,40,727,53,2014-10-01T18:25:00,0,28159127,204273
OK,78,27,727,78,2014-10-01T18:35:00,1,28159909,204273
OK,101,21,727,101,2014-10-01T18:40:00,1,28160358,204273
OK,101,21,727,101,2014-10-01T18:45:00,1,28160807,204273
OK,101,21,727,101,2014-10-01T18:50:00,0,28161245,204273
OK,101,21,727,101,2014-10-01T18:55:00,0,28161694,204273
OK,60,35,727,60,2014-10-01T19:00:00,1,28162111,204273
OK,60,35,727,60,2014-10-01T19:05:00,1,28162560,204273
OK,128,16,727,128,2014-10-01T19:10:00,1,28162954,204273
OK,128,16,727,128,2014-10-01T19:15:00,1,28163393,204273
OK,118,18,727,118,2014-10-01T19:20:00,2,28163841,204273
OK,118,18,727,118,2014-10-01T19:25:00,2,28164290,204273
OK,90,23,727,90,2014-10-01T19:30:00,1,28164721,204273
OK,90,23,727,90,2014-10-01T19:35:00,0,28165170,204273
OK,90,23,727,90,2014-10-01T19:40:00,0,28165595,204273
OK,90,23,727,90,2014-10-01T19:45:00,0,28166043,204273
OK,85,24,727,85,2014-10-01T19:55:00,1,28166846,204273
OK,85,24,727,85,2014-10-01T20:00:00,0,28167295,204273
OK,85,24,727,85,2014-10-01T20:05:00,0,28167722,204273
OK,85,24,727,85,2014-10-01T20:10:00,0,28168157,204273
OK,85,24,727,85,2014-10-01T20:15:00,0,28168606,204273
OK,85,24,727,85,2014-10-01T20:20:00,0,28169051,204273
OK,85,24,727,85,2014-10-01T20:25:00,0,28169500,204273
OK,85,24,727,85,2014-10-01T20:30:00,0,28169948,204273
OK,70,30,727,70,2014-10-01T20:35:00,0,28170374,204273
OK,64,33,727,64,2014-10-01T20:40:00,1,28170819,204273
OK,44,48,727,44,2014-10-01T20:45:00,1,28171267,204273
OK,44,48,727,44,2014-10-01T20:50:00,1,28171704,204273
OK,44,48,727,44,2014-10-01T20:55:00,0,28172150,204273
OK,44,48,727,44,2014-10-01T21:00:00,0,28172598,204273
OK,44,48,727,44,2014-10-01T21:05:00,0,28173044,204273
OK,58,36,727,58,2014-10-01T21:10:00,2,28173490,204273
OK,45,47,727,45,2014-10-01T21:15:00,1,28173937,204273
OK,45,47,727,45,2014-10-01T21:20:00,0,28174380,204273
OK,45,47,727,45,2014-10-01T21:25:00,0,28174822,204273
OK,45,47,727,45,2014-10-01T21:35:00,0,28175651,204273
OK,45,47,727,45,2014-10-01T21:40:00,0,28176100,204273
OK,45,47,727,45,2014-10-01T21:45:00,0,28176549,204273
OK,45,47,727,45,2014-10-01T21:50:00,0,28176998,204273
OK,45,47,727,45,2014-10-01T21:55:00,0,28177352,204273
OK,45,47,727,45,2014-10-01T22:00:00,0,28177793,204273
OK,45,47,727,45,2014-10-01T22:05:00,0,28178240,204273
OK,45,47,727,45,2014-10-01T22:10:00,0,28178689,204273
OK,45,47,727,45,2014-10-01T22:15:00,0,28179136,204273
OK,45,47,727,45,2014-10-01T22:20:00,0,28179570,204273
OK,45,47,727,45,2014-10-01T22:25:00,0,28180013,204273
OK,45,47,727,45,2014-10-01T22:35:00,0,28180858,204273
OK,45,47,727,45,2014-10-01T22:45:00,0,28181731,204273
OK,45,47,727,45,2014-10-01T22:50:00,0,28182177,204273
OK,45,47,727,45,2014-10-01T22:55:00,0,28182626,204273
OK,45,47,727,45,2014-10-01T23:00:00,0,28183067,204273
OK,45,47,727,45,2014-10-01T23:10:00,0,28183922,204273
OK,45,47,727,45,2014-10-01T23:15:00,0,28184370,204273
OK,45,47,727,45,2014-10-01T23:25:00,0,28185253,204273
OK,45,47,727,45,2014-10-01T23:30:00,0,28186077,204273
OK,45,47,727,45,2014-10-01T23:40:00,0,28186525,204273
OK,45,47,727,45,2014-10-01T23:45:00,0,28187365,204273
OK,101,21,727,101,2014-10-01T23:50:00,1,28187814,204273
OK,45,47,727,45,2014-10-01T23:55:00,0,28188255,204273
OK,45,47,727,45,2014-10-02T00:00:00,0,28188691,204273
OK,45,47,727,45,2014-10-02T00:10:00,0,28189140,204273
OK,45,47,727,45,2014-10-02T00:15:00,0,28189589,204273
OK,45,47,727,45,2014-10-02T00:20:00,0,28190011,204273
OK,45,47,727,45,2014-10-02T00:30:00,0,28190813,204273
OK,45,47,727,45,2014-10-02T00:35:00,0,28191262,204273
OK,45,47,727,45,2014-10-02T00:45:00,0,28192017,204273
OK,45,47,727,45,2014-10-02T00:50:00,0,28192466,204273
OK,45,47,727,45,2014-10-02T00:55:00,0,28192899,204273
OK,45,47,727,45,2014-10-02T01:00:00,0,28193299,204273
OK,45,47,727,45,2014-10-02T01:05:00,0,28193710,204273
OK,45,47,727,45,2014-10-02T01:10:00,0,28194159,204273
OK,45,47,727,45,2014-10-02T01:15:00,0,28194608,204273
OK,45,47,727,45,2014-10-02T01:25:00,0,28195293,204273
OK,45,47,727,45,2014-10-02T01:30:00,0,28195742,204273
OK,45,47,727,45,2014-10-02T01:35:00,0,28196191,204273
OK,45,47,727,45,2014-10-02T01:40:00,0,28196475,204273
OK,45,47,727,45,2014-10-02T01:45:00,0,28196924,204273
OK,45,47,727,45,2014-10-02T01:50:00,0,28197347,204273
OK,45,47,727,45,2014-10-02T01:55:00,0,28197796,204273
OK,45,47,727,45,2014-10-02T02:00:00,0,28198244,204273
OK,45,47,727,45,2014-10-02T02:05:00,0,28198692,204273
OK,45,47,727,45,2014-10-02T02:10:00,0,28199141,204273
OK,45,47,727,45,2014-10-02T02:15:00,0,28199513,204273
OK,45,47,727,45,2014-10-02T02:20:00,0,28199955,204273
OK,45,47,727,45,2014-10-02T02:25:00,0,28200397,204273
OK,45,47,727,45,2014-10-02T02:30:00,0,28200840,204273
OK,45,47,727,45,2014-10-02T02:35:00,0,28201289,204273
OK,45,47,727,45,2014-10-02T02:45:00,0,28201720,204273
OK,45,47,727,45,2014-10-02T02:50:00,0,28202169,204273
OK,45,47,727,45,2014-10-02T02:55:00,0,28202618,204273
OK,45,47,727,45,2014-10-02T03:00:00,0,28203060,204273
OK,45,47,727,45,2014-10-02T03:05:00,0,28203508,204273
OK,45,47,727,45,2014-10-02T03:10:00,0,28203943,204273
OK,45,47,727,45,2014-10-02T03:30:00,0,28204392,204273
OK,45,47,727,45,2014-10-02T03:35:00,0,28204841,204273
OK,45,47,727,45,2014-10-02T03:40:00,0,28205290,204273
OK,45,47,727,45,2014-10-02T03:45:00,0,28205718,204273
OK,45,47,727,45,2014-10-02T03:50:00,0,28206142,204273
OK,45,47,727,45,2014-10-02T03:55:00,0,28206548,204273
OK,45,47,727,45,2014-10-02T04:00:00,0,28206997,204273
OK,45,47,727,45,2014-10-02T04:05:00,0,28207446,204273
OK,45,47,727,45,2014-10-02T04:10:00,0,28207865,204273
OK,45,47,727,45,2014-10-02T04:15:00,0,28208314,204273
OK,45,47,727,45,2014-10-02T04:20:00,0,28208741,204273
OK,45,47,727,45,2014-10-02T04:25:00,0,28209190,204273
OK,73,29,727,73,2014-10-02T04:30:00,5,28209628,204273
OK,73,29,727,73,2014-10-02T04:35:00,1,28210077,204273
OK,81,26,727,81,2014-10-02T04:40:00,1,28210500,204273
OK,81,26,727,81,2014-10-02T04:45:00,0,28210949,204273
OK,81,26,727,81,2014-10-02T04:50:00,0,28211374,204273
OK,77,27,727,77,2014-10-02T05:00:00,1,28212196,204273
OK,74,28,727,74,2014-10-02T05:05:00,2,28212645,204273
OK,58,36,727,58,2014-10-02T05:10:00,0,28213074,204273
OK,49,43,727,49,2014-10-02T05:15:00,2,28213523,204273
OK,36,59,727,36,2014-10-02T05:20:00,1,28213961,204273
OK,59,36,727,59,2014-10-02T05:25:00,7,28214410,204273
OK,71,29,727,71,2014-10-02T05:30:00,4,28214823,204273
OK,71,29,727,71,2014-10-02T05:35:00,0,28215272,204273
OK,85,24,727,85,2014-10-02T05:40:00,6,28215688,204273
OK,91,23,727,91,2014-10-02T05:45:00,3,28216137,204273
OK,91,23,727,91,2014-10-02T05:50:00,0,28216476,204273
OK,69,30,727,69,2014-10-02T05:55:00,6,28216916,204273
OK,71,29,727,71,2014-10-02T06:00:00,4,28217363,204273
OK,86,24,727,86,2014-10-02T06:05:00,6,28217812,204273
OK,114,18,727,114,2014-10-02T06:10:00,1,28218251,204273
OK,68,31,727,68,2014-10-02T06:15:00,6,28218700,204273
OK,42,50,727,42,2014-10-02T06:20:00,3,28219120,204273
OK,59,36,727,59,2014-10-02T06:30:00,8,28219942,204273
OK,44,48,727,44,2014-10-02T06:35:00,5,28220391,204273
OK,54,39,727,54,2014-10-02T06:40:00,4,28220825,204273
OK,46,46,727,46,2014-10-02T06:45:00,4,28221274,204273
OK,62,34,727,62,2014-10-02T07:00:00,5,28221941,204273
OK,57,37,727,57,2014-10-02T07:05:00,5,28222086,204273
OK,80,26,727,80,2014-10-02T07:10:00,8,28222535,204273
OK,100,21,727,100,2014-10-02T07:15:00,5,28222984,204273
OK,59,36,727,59,2014-10-02T07:20:00,0,28223415,204273
OK,56,37,727,56,2014-10-02T07:25:00,3,28223850,204273
OK,72,29,727,72,2014-10-02T07:35:00,3,28224653,204273
OK,72,29,727,72,2014-10-02T07:40:00,1,28225102,204273
OK,72,29,727,72,2014-10-02T07:45:00,0,28225504,204273
OK,67,31,727,67,2014-10-02T07:50:00,5,28225873,204273
OK,67,31,727,67,2014-10-02T07:55:00,6,28226322,204273
OK,68,31,727,68,2014-10-02T08:00:00,5,28226763,204273
OK,60,35,727,60,2014-10-02T08:05:00,3,28227212,204273
OK,55,38,727,55,2014-10-02T08:10:00,0,28227627,204273
OK,71,29,727,71,2014-10-02T08:20:00,0,28228435,204273
OK,47,45,727,47,2014-10-02T08:25:00,2,28228884,204273
OK,53,40,727,53,2014-10-02T08:30:00,1,28229294,204273
OK,71,29,727,71,2014-10-02T08:40:00,1,28230093,204273
OK,71,29,727,71,2014-10-02T08:45:00,0,28230542,204273
OK,55,38,727,55,2014-10-02T08:50:00,6,28230908,204273
OK,72,29,727,72,2014-10-02T08:55:00,1,28231355,204273
OK,104,20,727,104,2014-10-02T09:00:00,1,28231780,204273
OK,62,34,727,62,2014-10-02T09:15:00,9,28232571,204273
OK,62,34,727,62,2014-10-02T09:20:00,3,28233020,204273
OK,63,33,727,63,2014-10-02T09:25:00,12,28233469,204273
OK,61,34,727,61,2014-10-02T09:30:00,2,28233893,204273
OK,50,42,727,50,2014-10-02T09:40:00,3,28234675,204273
OK,40,53,727,40,2014-10-02T09:45:00,3,28235124,204273
OK,39,54,727,39,2014-10-02T09:50:00,0,28235551,204273
OK,63,33,727,63,2014-10-02T09:55:00,3,28236000,204273
OK,94,22,727,94,2014-10-02T10:00:00,2,28236443,204273
OK,94,22,727,94,2014-10-02T10:05:00,0,28236890,204273
OK,64,33,727,64,2014-10-02T10:10:00,10,28237292,204273
OK,69,30,727,69,2014-10-02T10:15:00,5,28237740,204273
OK,57,37,727,57,2014-10-02T10:20:00,8,28238189,204273
OK,50,42,727,50,2014-10-02T10:25:00,5,28238636,204273
OK,48,44,727,48,2014-10-02T10:30:00,0,28239077,204273
OK,96,22,727,96,2014-10-02T10:35:00,6,28239526,204273
OK,81,26,727,81,2014-10-02T10:40:00,6,28239956,204273
OK,48,44,727,48,2014-10-02T10:45:00,5,28240405,204273
OK,44,48,727,44,2014-10-02T10:50:00,3,28240849,204273
OK,71,29,727,71,2014-10-02T10:55:00,12,28241298,204273
OK,73,29,727,73,2014-10-02T11:00:00,6,28241730,204273
OK,65,32,727,65,2014-10-02T11:05:00,0,28242178,204273
OK,52,40,727,52,2014-10-02T11:10:00,1,28242574,204273
OK,45,47,727,45,2014-10-02T11:15:00,4,28243023,204273
OK,44,48,727,44,2014-10-02T11:20:00,3,28243472,204273
OK,45,47,727,45,2014-10-02T11:25:00,0,28243797,204273
OK,45,47,727,45,2014-10-02T11:30:00,0,28244235,204273
OK,55,38,727,55,2014-10-02T11:35:00,6,28244664,204273
OK,48,44,727,48,2014-10-02T11:40:00,2,28245113,204273
OK,43,49,727,43,2014-10-02T11:45:00,0,28245562,204273
OK,92,23,727,92,2014-10-02T11:50:00,6,28245968,204273
OK,92,23,727,92,2014-10-02T11:55:00,4,28246417,204273
OK,102,20,727,102,2014-10-02T12:00:00,4,28246854,204273
OK,101,21,727,101,2014-10-02T12:05:00,2,28247302,204273
OK,101,21,727,101,2014-10-02T12:10:00,0,28247749,204273
OK,102,20,727,102,2014-10-02T12:15:00,2,28248179,204273
OK,80,26,727,80,2014-10-02T12:20:00,0,28248628,204273
OK,49,43,727,49,2014-10-02T12:25:00,10,28249075,204273
OK,41,51,727,41,2014-10-02T12:30:00,5,28249503,204273
OK,82,25,727,82,2014-10-02T12:35:00,9,28249947,204273
OK,99,21,727,99,2014-10-02T12:40:00,5,28250327,204273
OK,61,34,727,61,2014-10-02T12:45:00,11,28251095,204273
OK,77,27,727,77,2014-10-02T13:20:00,16,28251624,204273
OK,92,23,727,92,2014-10-02T13:30:00,12,28252089,204273
OK,72,29,727,72,2014-10-02T13:35:00,2,28252226,204273
OK,64,33,727,64,2014-10-02T13:40:00,0,28252673,204273
OK,81,26,727,81,2014-10-02T13:45:00,19,28253097,204273
OK,69,30,727,69,2014-10-02T13:50:00,12,28253532,204273
OK,69,30,727,69,2014-10-02T13:55:00,10,28253981,204273
OK,77,27,727,77,2014-10-02T14:10:00,15,28254712,204273
OK,64,33,727,64,2014-10-02T14:15:00,9,28254835,204273
OK,77,27,727,77,2014-10-02T14:20:00,11,28255284,204273
OK,71,29,727,71,2014-10-02T14:25:00,3,28255733,204273
OK,59,36,727,59,2014-10-02T14:30:00,9,28256161,204273
OK,50,42,727,50,2014-10-02T14:35:00,6,28256609,204273
OK,51,41,727,51,2014-10-02T14:40:00,3,28257038,204273
OK,68,31,727,68,2014-10-02T14:45:00,9,28257487,204273
OK,68,31,727,68,2014-10-02T14:50:00,5,28257928,204273
OK,77,27,727,77,2014-10-02T14:55:00,2,28258376,204273
OK,56,37,727,56,2014-10-02T15:00:00,4,28258809,204273
OK,52,40,727,52,2014-10-02T15:05:00,4,28259255,204273
OK,39,54,727,39,2014-10-02T15:10:00,3,28259703,204273
OK,54,39,727,54,2014-10-02T15:15:00,5,28260151,204273
OK,48,44,727,48,2014-10-02T15:20:00,4,28260584,204273
OK,84,25,727,84,2014-10-02T15:25:00,7,28261029,204273
OK,71,29,727,71,2014-10-02T15:35:00,5,28261836,204273
OK,53,40,727,53,2014-10-02T15:40:00,2,28262285,204273
OK,101,21,727,101,2014-10-02T15:45:00,9,28262732,204273
OK,91,23,727,91,2014-10-02T15:50:00,1,28263178,204273
OK,91,23,727,91,2014-10-02T15:55:00,0,28263613,204273
OK,54,39,727,54,2014-10-02T16:05:00,1,28264459,204273
OK,85,24,727,85,2014-10-02T16:10:00,2,28264908,204273
OK,102,20,727,102,2014-10-02T16:15:00,1,28265346,204273
OK,95,22,727,95,2014-10-02T16:25:00,5,28266182,204273
OK,60,35,727,60,2014-10-02T16:30:00,5,28266631,204273
OK,65,32,727,65,2014-10-02T16:35:00,2,28267403,204273
OK,94,22,727,94,2014-10-02T16:45:00,2,28267852,204273
OK,117,18,727,117,2014-10-02T16:50:00,0,28268301,204273
OK,70,30,727,70,2014-10-02T16:55:00,1,28268743,204273
OK,52,40,727,52,2014-10-02T17:00:00,3,28269192,204273
OK,52,40,727,52,2014-10-02T17:05:00,3,28269641,204273
OK,46,46,727,46,2014-10-02T17:10:00,0,28270076,204273
OK,46,46,727,46,2014-10-02T17:15:00,0,28270525,204273
OK,57,37,727,57,2014-10-02T17:20:00,2,28270959,204273
OK,80,26,727,80,2014-10-02T17:25:00,1,28271408,204273
OK,80,26,727,80,2014-10-02T17:30:00,0,28271837,204273
OK,80,26,727,80,2014-10-02T17:35:00,0,28272286,204273
OK,80,26,727,80,2014-10-02T17:40:00,0,28272721,204273
OK,66,32,727,66,2014-10-02T17:45:00,1,28273163,204273